Location: Ferma
(41.9500°N, 44.5167°E)
Time: 19:29:48
(UTC+00:00)

USA 215 - Pass Details

Date: 24 October 2021
Orbit: 1099 x 1109 km, 123.0° (Epoch: 20 November)

Event Time Altitude Azimuth Distance (km) Brightness Sun altitude
Exits shadow 15:33:53 - 40° (NE) 3,049 5.2 -16.8°
Reaches altitude 10° 15:34:08 10° 39° (NE) 2,963 5.1 -16.9°
Maximum altitude 15:39:54 35° 337° (NNW) 1,705 4.4 -17.9°
Drops below altitude 10° 15:45:41 10° 275° (W) 2,963 6.8 -19.0°
Sets 15:48:23 0° 267° (W) 3,921 7.8 -19.5°
